When you browse on this site, cookies collect data to enhance your experience and personalize the content and advertising you see.
Visit our Privacy Policy to learn more. By continuing to use the site, you agree to this use of cookies and data.
  • In Austria
  • List of Countries
  • For 7 days
  • Water Temperature
  • Weather Map
  • News
  • Weather Widgets
  • user-avatar
    Login

    Hourly Weather Rhodes

    Today, 22 January, Wednesday

    Time Temperature Precipitation Wind Pressure Humidity
    00:00 +3°C° 0 mm 6 mps 740 mmHg 64%
    01:00 +3°C° 0 mm 6 mps 739 mmHg 66%
    02:00 +3°C° 0 mm 6 mps 739 mmHg 66%
    03:00 +3°C° 0 mm 5 mps 739 mmHg 67%
    04:00 +2°C° 0 mm 5 mps 739 mmHg 68%
    05:00 +2°C° 0 mm 5 mps 738 mmHg 69%
    06:00 +2°C° 0 mm 5 mps 739 mmHg 69%
    07:00 +3°C° 0 mm 4 mps 739 mmHg 70%
    08:00 +4°C° 0 mm 4 mps 739 mmHg 68%
    09:00 +6°C° 0 mm 4 mps 739 mmHg 61%
    10:00 +8°C° 0 mm 4 mps 739 mmHg 53%
    11:00 +10°C° 0 mm 3 mps 739 mmHg 46%
    12:00 +11°C° 0 mm 3 mps 739 mmHg 44%
    13:00 +11°C° 0 mm 3 mps 738 mmHg 42%
    14:00 +12°C° 0 mm 3 mps 738 mmHg 40%
    15:00 +11°C° 0 mm 3 mps 738 mmHg 45%
    16:00 +10°C° 0 mm 3 mps 738 mmHg 50%
    17:00 +9°C° 0 mm 3 mps 738 mmHg 54%
    18:00 +8°C° 0 mm 3 mps 738 mmHg 58%
    19:00 +7°C° 0 mm 3 mps 738 mmHg 62%
    20:00 +5°C° 0 mm 3 mps 738 mmHg 65%
    21:00 +5°C° 0 mm 3 mps 737 mmHg 67%
    22:00 +5°C° 0 mm 3 mps 737 mmHg 69%
    23:00 +5°C° 0 mm 3 mps 737 mmHg 70%

    Tomorrow, 23 January, Thursday

    Time Temperature Precipitation Wind Pressure Humidity
    00:00 +5°C° 0 mm 3 mps 737 mmHg 71%
    01:00 +5°C° 0 mm 4 mps 737 mmHg 72%
    02:00 +5°C° 0 mm 4 mps 737 mmHg 72%
    03:00 +5°C° 0 mm 5 mps 736 mmHg 71%
    04:00 +5°C° 0 mm 5 mps 736 mmHg 70%
    05:00 +5°C° 0 mm 6 mps 736 mmHg 69%
    06:00 +5°C° 0 mm 6 mps 736 mmHg 70%
    07:00 +5°C° 0 mm 7 mps 736 mmHg 71%
    08:00 +6°C° 0 mm 7 mps 736 mmHg 71%
    09:00 +7°C° 0 mm 8 mps 736 mmHg 66%
    10:00 +10°C° 0 mm 8 mps 736 mmHg 61%
    11:00 +11°C° 0 mm 9 mps 736 mmHg 57%
    12:00 +11°C° 0 mm 9 mps 736 mmHg 54%
    13:00 +11°C° 0 mm 9 mps 735 mmHg 51%
    14:00 +12°C° 0 mm 9 mps 735 mmHg 48%
    15:00 +11°C° 0 mm 9 mps 735 mmHg 49%
    16:00 +10°C° 0 mm 9 mps 735 mmHg 51%
    17:00 +9°C° 0 mm 8 mps 735 mmHg 52%
    18:00 +8°C° 0 mm 9 mps 736 mmHg 46%
    19:00 +8°C° 0 mm 10 mps 736 mmHg 41%
    20:00 +8°C° 0 mm 10 mps 737 mmHg 36%
    21:00 +7°C° 0 mm 10 mps 737 mmHg 38%
    22:00 +6°C° 0 mm 10 mps 738 mmHg 41%
    23:00 +6°C° 0 mm 10 mps 738 mmHg 44%

    Day after tomorrow, 24 January, Friday

    Time Temperature Precipitation Wind Pressure Humidity
    00:00 +5°C° 0 mm 10 mps 738 mmHg 42%
    01:00 +5°C° 0 mm 10 mps 739 mmHg 41%
    02:00 +3°C° 0 mm 10 mps 739 mmHg 39%
    03:00 +3°C° 0 mm 10 mps 739 mmHg 41%
    04:00 +2°C° 0 mm 10 mps 739 mmHg 42%
    05:00 +2°C° 0 mm 10 mps 739 mmHg 43%
    06:00 +2°C° 0 mm 9 mps 740 mmHg 46%
    07:00 +2°C° 0 mm 9 mps 740 mmHg 48%
    08:00 +1°C° 0 mm 8 mps 741 mmHg 50%
    09:00 +4°C° 0 mm 7 mps 741 mmHg 46%
    10:00 +5°C° 0 mm 6 mps 741 mmHg 42%
    11:00 +7°C° 0 mm 5 mps 741 mmHg 38%
    12:00 +8°C° 0 mm 4 mps 741 mmHg 36%
    13:00 +8°C° 0 mm 4 mps 741 mmHg 35%
    14:00 +10°C° 0 mm 3 mps 741 mmHg 34%
    15:00 +9°C° 0 mm 3 mps 741 mmHg 39%
    16:00 +8°C° 0 mm 3 mps 741 mmHg 44%
    17:00 +7°C° 0 mm 3 mps 741 mmHg 50%
    18:00 +5°C° 0 mm 3 mps 741 mmHg 50%
    19:00 +4°C° 0 mm 3 mps 741 mmHg 49%
    20:00 +3°C° 0 mm 3 mps 741 mmHg 49%
    21:00 +4°C° 0 mm 2 mps 741 mmHg 50%
    22:00 +4°C° 0 mm 2 mps 741 mmHg 51%
    23:00 +4°C° 0 mm 2 mps 741 mmHg 52%

    25 January, Saturday

    Time Temperature Precipitation Wind Pressure Humidity
    00:00 +4°C° 0 mm 2 mps 741 mmHg 53%
    01:00 +4°C° 0 mm 2 mps 740 mmHg 55%
    02:00 +4°C° 0 mm 2 mps 740 mmHg 56%
    03:00 +4°C° 0 mm 2 mps 740 mmHg 59%
    04:00 +3°C° 0 mm 3 mps 740 mmHg 62%
    05:00 +3°C° 0 mm 3 mps 740 mmHg 65%
    06:00 +3°C° 0 mm 3 mps 740 mmHg 64%
    07:00 +4°C° 0 mm 3 mps 740 mmHg 64%
    08:00 +4°C° 0 mm 3 mps 740 mmHg 63%
    09:00 +7°C° 0 mm 4 mps 741 mmHg 57%
    10:00 +10°C° 0 mm 4 mps 741 mmHg 51%
    11:00 +12°C° 0 mm 4 mps 741 mmHg 44%
    12:00 +12°C° 0 mm 4 mps 741 mmHg 46%
    13:00 +13°C° 0 mm 4 mps 741 mmHg 47%
    14:00 +13°C° 0 mm 4 mps 740 mmHg 48%
    15:00 +12°C° 0 mm 4 mps 740 mmHg 54%
    16:00 +11°C° 0 mm 4 mps 740 mmHg 60%
    17:00 +10°C° 0 mm 4 mps 740 mmHg 66%
    18:00 +8°C° 0 mm 4 mps 740 mmHg 70%
    19:00 +7°C° 0 mm 4 mps 741 mmHg 74%
    20:00 +7°C° 0 mm 3 mps 741 mmHg 78%
    21:00 +7°C° 0 mm 3 mps 741 mmHg 78%
    22:00 +7°C° 0 mm 3 mps 741 mmHg 79%
    23:00 +7°C° 0 mm 2 mps 741 mmHg 79%

    26 January, Sunday

    Time Temperature Precipitation Wind Pressure Humidity
    00:00 +6°C° 0 mm 2 mps 741 mmHg 79%
    01:00 +6°C° 0 mm 2 mps 741 mmHg 79%
    02:00 +6°C° 0 mm 2 mps 741 mmHg 78%
    03:00 +7°C° 0 mm 1 mps 741 mmHg 81%
    04:00 +7°C° 0 mm 1 mps 741 mmHg 84%
    05:00 +7°C° 0 mm 1 mps 740 mmHg 87%
    06:00 +7°C° 0 mm 1 mps 741 mmHg 87%
    07:00 +8°C° 0 mm 1 mps 741 mmHg 87%
    08:00 +8°C° 0 mm 1 mps 741 mmHg 87%
    09:00 +10°C° 0 mm 1 mps 741 mmHg 78%
    10:00 +12°C° 0 mm 1 mps 742 mmHg 70%
    11:00 +14°C° 0 mm 1 mps 742 mmHg 61%
    12:00 +15°C° 0 mm 1 mps 741 mmHg 61%
    13:00 +15°C° 0 mm 2 mps 741 mmHg 61%
    14:00 +15°C° 0 mm 2 mps 740 mmHg 62%
    15:00 +14°C° 0 mm 2 mps 740 mmHg 68%
    16:00 +13°C° 0 mm 2 mps 740 mmHg 74%
    17:00 +12°C° 0 mm 1 mps 740 mmHg 81%
    18:00 +11°C° 0 mm 1 mps 740 mmHg 84%
    19:00 +10°C° 0 mm 1 mps 740 mmHg 87%
    20:00 +9°C° 0 mm 1 mps 740 mmHg 91%
    21:00 +9°C° 0 mm 1 mps 740 mmHg 90%
    22:00 +9°C° 0 mm 1 mps 740 mmHg 90%
    23:00 +9°C° 0 mm 1 mps 740 mmHg 89%

    27 January, Monday

    Time Temperature Precipitation Wind Pressure Humidity
    00:00 +9°C° 0 mm 1 mps 740 mmHg 89%
    01:00 +10°C° 0 mm 1 mps 739 mmHg 89%
    02:00 +10°C° 0 mm 1 mps 739 mmHg 88%
    03:00 +9°C° 0 mm 2 mps 739 mmHg 90%
    04:00 +9°C° 0 mm 2 mps 739 mmHg 91%
    05:00 +9°C° 0 mm 2 mps 739 mmHg 92%
    06:00 +9°C° 0 mm 2 mps 739 mmHg 92%
    07:00 +10°C° 0 mm 3 mps 739 mmHg 92%
    08:00 +10°C° 0 mm 3 mps 739 mmHg 92%
    09:00 +11°C° 0 mm 3 mps 739 mmHg 85%
    10:00 +13°C° 0 mm 4 mps 740 mmHg 78%
    11:00 +14°C° 0 mm 4 mps 740 mmHg 71%
    12:00 +14°C° 0 mm 4 mps 740 mmHg 70%
    13:00 +14°C° 0 mm 4 mps 739 mmHg 69%
    14:00 +14°C° 0 mm 4 mps 739 mmHg 68%
    15:00 +14°C° 0 mm 4 mps 739 mmHg 71%
    16:00 +13°C° 0 mm 4 mps 738 mmHg 74%
    17:00 +12°C° 0 mm 3 mps 738 mmHg 77%
    18:00 +12°C° 0 mm 4 mps 738 mmHg 79%
    19:00 +11°C° 0 mm 4 mps 738 mmHg 82%
    20:00 +11°C° 0 mm 4 mps 738 mmHg 85%
    21:00 +11°C° 0 mm 4 mps 738 mmHg 86%
    22:00 +11°C° 0 mm 4 mps 738 mmHg 87%
    23:00 +11°C° 0 mm 4 mps 738 mmHg 88%
    Show more